{"data":{"norad_id":66703,"epoch":"2026-05-25T02:33:21.436704Z","epoch_age_seconds":59851,"freshness":"FRESH","line1":"1 66703U 25276AP  26145.10649811  .00008890  00000+0  31655-3 0  9999","line2":"2 66703  97.4121 220.3351 0000701  28.4339 331.6939 15.29179273 27000","mean_motion":15.29179273,"eccentricity":7.01e-5,"inclination_deg":97.4121,"raan_deg":220.3351,"arg_perigee_deg":28.4339,"mean_anomaly_deg":331.6939,"bstar":0.00031655,"rev_number":2700,"period_min":94.168161014565,"perigee_km":477.78383767186,"apogee_km":478.74510515815,"semimajor_km":6856.401471415,"source":"CELESTRAK","updated_at":"2026-05-25T13:38:13.344824Z"}}